Aberdeen, SD

7:47 AM CDT on March 30, 2017 (GMT -0500)
Aberdeen Regional

Weather History for KABR - March, 2014

Change the Weather History Date:

Thursday, March 6, 2014

  Actual Average Record
Temperature  
Mean Temperature 27 °F 25 °F  
Max Temperature 36 °F 35 °F 69 °F (2000)
Min Temperature 17 °F 16 °F -16 °F (1899)
Degree Days  
Heating Degree Days 38 40  
Month to date heating degree days 345 245  
Since 1 July heating degree days 7504 6708  
Cooling Degree Days 0 0  
Month to date cooling degree days 0 0  
Year to date cooling degree days 0 0  
Moisture  
Dew Point 25 °F    
Average Humidity 89    
Maximum Humidity 100    
Minimum Humidity 78    
Precipitation  
Precipitation 0.00 in 0.03 in 0.60 in (1896)
Month to date precipitation 0.30 0.17  
Year to date precipitation 0.74 1.19  
Snow  
Snow 0.00 in 0.30 in 4.00 in (1915)
Month to date snowfall 3.4 1.6  
Since 1 July snowfall 27.8 29.4  
Snow Depth 3.00 in    
Sea Level Pressure  
Sea Level Pressure 29.82 in    
Wind  
Wind Speed 15 mph (South)    
Max Wind Speed 29 mph    
Max Gust Speed 36 mph    
Visibility 6 miles    
Events      
T = Trace of Precipitation, MM = Missing Value Source: NWS Daily Summary

Daily Weather History Graph

Daily Weather History Graph

Search for Another Location

Airport or City:

Trip Planner

Search our weather history database for the weather conditions in past years. The results will help you decide how hot, cold, wet, or windy it might be!

Date:

Astronomy

Mar. 06, 2014 Rise Set
Actual Time 7:02 AM CST 6:27 PM CST
Civil Twilight 6:33 AM CST 6:57 PM CST
Nautical Twilight 5:59 AM CST 7:31 PM CST
Astronomical Twilight 5:24 AM CST 8:06 PM CST
Moon 9:55 AM CST (3/6) No Moon Set
Length of Visible Light 12h 23m
Length of Day
11h 24m
Waxing Crescent, 32% of the Moon is Illuminated
Mar 6
Waxing Crescent
Mar 8
First Quarter
Mar 16
Full
Mar 23
Last Quarter
Mar 30
New

Hourly Weather History & Observations

Time (CST) Temp. Windchill Dew Point Humidity Pressure Visibility Wind Dir Wind Speed Gust Speed Precip Events Conditions
12:53 AM 18.0 °F 1.3 °F 15.1 °F 88% 30.06 in 6.0 mi South 20.7 mph 31.1 mph N/A   Clear
1:53 AM 19.0 °F 2.0 °F 16.0 °F 88% 30.03 in 5.0 mi South 23.0 mph 29.9 mph N/A   Clear
2:53 AM 19.0 °F 1.6 °F 16.0 °F 88% 30.01 in 5.0 mi South 24.2 mph 32.2 mph N/A   Clear
3:53 AM 19.0 °F 1.6 °F 16.0 °F 88% 29.97 in 5.0 mi South 24.2 mph 35.7 mph N/A   Clear
4:53 AM 19.9 °F 2.5 °F 17.1 °F 89% 29.93 in 5.0 mi South 25.3 mph 31.1 mph N/A   Partly Cloudy
5:53 AM 21.9 °F 5.8 °F 18.0 °F 85% 29.88 in 5.0 mi South 23.0 mph 34.5 mph N/A   Partly Cloudy
6:53 AM 21.0 °F 4.3 °F 18.0 °F 88% 29.89 in 5.0 mi South 24.2 mph 31.1 mph N/A   Clear
7:53 AM 21.0 °F 5.4 °F 18.0 °F 88% 29.88 in 4.0 mi South 20.7 mph - N/A   Clear
8:53 AM 23.0 °F 7.6 °F 19.0 °F 85% 29.87 in 5.0 mi South 21.9 mph 27.6 mph N/A   Clear
9:53 AM 24.1 °F 8.7 °F 19.9 °F 84% 29.85 in 5.0 mi South 23.0 mph 28.8 mph N/A   Clear
10:53 AM 27.0 °F 13.2 °F 21.9 °F 81% 29.84 in 5.0 mi South 20.7 mph 28.8 mph N/A   Haze
11:53 AM 30.0 °F 17.5 °F 25.0 °F 82% 29.82 in 6.0 mi South 19.6 mph - N/A   Haze
12:53 PM 32.0 °F 20.8 °F 26.1 °F 79% 29.79 in 6.0 mi South 17.3 mph - N/A   Haze
1:53 PM 34.0 °F 23.0 °F 28.9 °F 82% 29.75 in 7.0 mi South 18.4 mph - N/A   Clear
2:53 PM 36.0 °F 28.0 °F 30.0 °F 79% 29.73 in 7.0 mi South 11.5 mph - N/A   Partly Cloudy
3:53 PM 36.0 °F 29.0 °F 30.9 °F 82% 29.74 in 7.0 mi South 9.2 mph - N/A   Mostly Cloudy
4:53 PM 36.0 °F 29.6 °F 32.0 °F 86% 29.71 in 6.0 mi SSE 8.1 mph - N/A   Mostly Cloudy
5:53 PM 35.1 °F 28.6 °F 32.0 °F 89% 29.69 in 6.0 mi South 8.1 mph - N/A   Partly Cloudy
6:53 PM 34.0 °F 28.8 °F 32.0 °F 92% 29.69 in 7.0 mi SSE 5.8 mph - N/A   Partly Cloudy
7:53 PM 34.0 °F - 32.0 °F 92% 29.70 in 7.0 mi Calm Calm - N/A   Clear
8:53 PM 34.0 °F 28.0 °F 32.0 °F 92% 29.70 in 6.0 mi South 6.9 mph - N/A   Overcast
9:53 PM 33.1 °F - 32.0 °F 96% 29.72 in 5.0 mi Calm Calm - N/A   Overcast
10:53 PM 32.0 °F 27.5 °F 32.0 °F 100% 29.75 in 5.0 mi NNW 4.6 mph - N/A   Mostly Cloudy
11:53 PM 32.0 °F 27.5 °F 30.9 °F 96% 29.77 in 4.0 mi NNE 4.6 mph - N/A   Scattered Clouds